[[{"header":{"parameterUnit":"m.s-1","parameterCategory":1,"la1":30.2991,"la2":30.254,"lo1":-89.0895,"lo2":-89.0444,"dy":0.0017,"dx":0.0017,"nx":28,"ny":28,"refTime":"2023-08-18T03:00:00:Z","depth":0,"parameterNumber":2,"parameterNumberName":"U-component_of_WINDS"},"data":[0,0,0,0,0,0,0,0,0,0,0,0,0,0,0,0,0,0,0,0,0,0,0,0,0,0,0,0,0,0,0,0,0,0,0,0,0,0,0,0,0,0,0,0,0,0,0,0,0,0,0,0,0,0,0,0,0,0,1.4124,1.4124,0,1.4164,1.4164,1.4165,1.4134,1.4132,1.4131,1.413,1.4171,1.4173,1.4175,0,0,0,0,0,0,0,0,0,0,0,0,0,1.4018,1.402,1.4124,1.4124,1.4125,1.4164,1.4164,1.4165,1.4134,1.4132,1.4131,1.4129,1.417,1.4173,1.4175,0,0,0,0,0,0,0,0,0,0,0,0,0,1.4061,1.402,1.4124,1.4114,1.4113,1.4164,1.4164,1.4165,1.4134,1.4132,1.413,1.4128,1.4169,1.4172,1.4176,1.4238,0,0,1.4186,1.4188,0,0,0,0,0,0,0,0,1.4059,1.4065,1.4115,1.4115,1.4114,1.4142,1.4142,1.4189,1.4135,1.4126,1.413,1.4127,1.4163,1.4166,1.4178,1.424,1.4241,1.4187,1.4189,1.419,1.4191,0,0,0,0,0,0,0,1.4056,1.4063,1.414,1.4116,1.4115,1.4107,1.4111,1.4151,1.4155,1.4127,1.4125,1.413,1.4162,1.4175,1.4179,1.4242,1.4187,1.419,1.4192,1.4193,1.4353,1.4355,0,0,0,0,0,0,1.4054,1.4061,1.4138,1.4141,1.4081,1.411,1.4115,1.4135,1.4155,1.4156,1.4132,1.4128,1.417,1.4175,1.418,1.4252,1.419,1.4194,1.4196,1.4351,1.4354,1.4356,0,0,0,0,0,0,1.4052,1.4061,1.4137,1.41,1.4109,1.4114,1.4137,1.4137,1.415,1.4158,1.4159,1.4144,1.4169,1.4176,1.4223,1.4253,1.4195,1.4198,1.4349,1.4352,1.4355,1.4398,0,0,0,0,0,0,1.4049,1.4061,1.4085,1.4101,1.4111,1.4179,1.4139,1.4139,1.4156,1.4152,1.417,1.4171,1.4168,1.4218,1.4227,1.4257,1.4201,1.4346,1.435,1.4354,1.4394,1.4402,1.441,0,0,0,0,0,1.4045,1.4096,1.4086,1.4096,1.4142,1.4181,1.4187,1.4182,1.4159,1.4182,1.4187,1.4171,1.4249,1.4223,1.4233,1.4265,1.4344,1.4349,1.4354,1.4391,1.4401,1.4409,0,0,0,0,0,0,1.4084,1.4098,1.4087,1.4145,1.4162,1.4176,1.4206,1.4193,1.4217,1.4213,1.4205,1.4209,1.4259,1.4267,1.4238,1.4324,1.4293,1.43,1.4317,1.4327,1.4335,1.4332,1.4204,0,0,0,0,0,1.4099,1.413,1.4141,1.419,1.4199,1.4201,1.4218,1.4213,1.423,1.4237,1.4246,1.4263,1.4291,1.431,1.4336,1.4395,1.4398,1.4422,1.443,1.4436,1.4442,1.4471,1.4481,1.4372,1.4372,1.4372,0,0,1.413,1.4142,1.4162,1.4198,1.4211,1.4242,1.4208,1.4243,1.4266,1.4242,1.4287,1.4294,1.4313,1.4366,1.4389,1.4374,1.4472,1.4442,1.4447,1.4449,1.4477,1.4487,1.4497,1.4375,1.4375,1.4374,0,0,1.4203,1.4216,1.4258,1.4271,1.429,1.4291,1.4301,1.4316,1.432,1.4365,1.4347,1.4374,1.4423,1.4436,1.445,1.4526,1.451,1.4535,1.4575,1.4604,1.4612,1.462,1.4645,1.4655,1.454,1.4541,1.4541,0,1.424,1.4287,1.4281,1.4317,1.4332,1.4312,1.4353,1.4366,1.4393,1.4404,1.4386,1.4446,1.4457,1.4512,1.453,1.4542,1.4552,1.4532,1.4612,1.4619,1.4626,1.465,1.466,1.4543,1.4543,1.4543,1.4542,0,1.433,1.4363,1.4395,1.442,1.4439,1.4478,1.4476,1.4497,1.4489,1.4491,1.4536,1.4548,1.4576,1.4589,1.4582,1.4642,1.4631,1.4613,1.4581,1.464,1.4662,1.4671,1.4547,1.4546,1.4545,1.4545,0,0,1.4429,1.445,1.4461,1.4472,1.4491,1.4516,1.4553,1.4579,1.4596,1.4615,1.4645,1.4686,1.4668,1.4683,1.4677,1.4703,1.476,1.4681,1.4681,1.4694,1.4824,1.4837,1.4848,1.475,1.4752,1.4753,1.4822,0,1.4502,1.4566,1.4561,1.4621,1.465,1.4631,1.4663,1.4677,1.468,1.4704,1.4707,1.4736,1.4711,1.472,1.4744,1.4748,1.4786,1.4743,1.4777,1.4778,1.4771,1.486,1.4875,1.4939,1.4831,1.4833,1.4834,0,1.4596,1.4617,1.468,1.4693,1.4705,1.4734,1.4757,1.4781,1.4796,1.4796,1.4812,1.4801,1.4837,1.4805,1.4853,1.4824,1.4837,1.4841,1.4843,1.4845,1.4809,1.4863,1.496,1.4969,1.4848,1.4847,1.4846,0,1.4659,1.4704,1.4747,1.4757,1.4773,1.4793,1.4801,1.4814,1.483,1.485,1.486,1.4884,1.4897,1.4915,1.4911,1.4888,1.496,1.4927,1.496,1.496,1.4975,1.4974,1.5073,1.4986,1.4986,1.4986,1.4985,0,1.474,1.478,1.4775,1.4802,1.4844,1.4837,1.4879,1.4884,1.4896,1.4922,1.4907,1.4932,1.4925,1.4949,1.4946,1.4986,1.4992,1.4992,1.4991,1.4993,1.4993,1.5001,1.4996,1.4988,1.4988,1.4987,1.4987,0,1.4819,1.4818,1.4863,1.4874,1.4878,1.4908,1.4917,1.4942,1.4943,1.4976,1.4983,1.4984,1.5012,1.501,1.5041,1.5039,1.5087,1.5081,1.5082,1.508,1.5112,1.5108,1.5219,1.5232,1.5137,1.5138,1.5139,0,1.487,1.4899,1.4913,1.4929,1.4938,1.4965,1.4981,1.4974,1.4991,1.5009,1.5031,1.5057,1.5077,1.5122,1.5125,1.5149,1.5142,1.5179,1.5145,1.5146,1.5141,1.5138,1.514,1.5186,1.5187,1.5187,1.5188,0,1.496,1.4958,1.4981,1.5004,1.5023,1.504,1.5056,1.5071,1.5065,1.5085,1.5112,1.5128,1.5159,1.5185,1.5206,1.5213,1.5199,1.5199,1.5207,1.5209,1.5208,1.5207,1.5098,1.5196,1.5195,1.5195,1.5194,1.5194,1.5026,1.505,1.5063,1.5089,1.51,1.5115,1.5137,1.5141,1.5164,1.5188,1.5183,1.5213,1.5226,1.5254,1.5263,1.5286,1.5272,1.5285,1.5288,1.5291,1.5294,1.5205,1.529,1.529,1.529,1.5289,1.5289,0,1.5114,1.5121,1.5145,1.5167,1.5187,1.5172,1.5188,1.5206,1.5233,1.5246,1.5266,1.5297,1.5321,1.5326,1.5348,1.5366,1.536,1.5372,1.537,1.5372,1.5306,1.5295,1.5376,1.5376,1.5376,1.5376,1.5376,1.5376,1.5162,1.5202,1.5201,1.5245,1.5252,1.5282,1.5292,1.5305,1.5315,1.535,1.537,1.5373,1.5382,1.5405,1.5426,1.5426,1.5435,1.5449,1.5447,1.5385,1.5377,1.5368,1.5358,1.5451,1.5451,1.5511,1.5512,1.5512]},{"header":{"parameterUnit":"m.s-1","parameterCategory":1,"la1":30.2991,"la2":30.254,"lo1":-89.0895,"lo2":-89.0444,"dy":0.0017,"dx":0.0017,"nx":28,"ny":28,"refTime":"2023-08-18T03:00:00:Z","depth":0,"parameterNumber":3,"parameterNumberName":"V-component_of_WINDS"},"data":[0,0,0,0,0,0,0,0,0,0,0,0,0,0,0,0,0,0,0,0,0,0,0,0,0,0,0,0,0,0,0,0,0,0,0,0,0,0,0,0,0,0,0,0,0,0,0,0,0,0,0,0,0,0,0,0,0,0,5.0153,5.0154,0,5.023,5.0231,5.0232,5.0182,5.0179,5.0177,5.0175,5.0245,5.0249,5.0253,0,0,0,0,0,0,0,0,0,0,0,0,0,4.9952,4.9956,5.0153,5.0154,5.0155,5.023,5.0231,5.0232,5.0182,5.0179,5.0177,5.0174,5.0244,5.0248,5.0253,0,0,0,0,0,0,0,0,0,0,0,0,0,5.0035,4.9957,5.0153,5.0139,5.0139,5.023,5.0231,5.0232,5.0183,5.0179,5.0176,5.0173,5.0242,5.0248,5.0254,5.0359,0,0,5.0272,5.0275,0,0,0,0,0,0,0,0,5.003,5.0042,5.014,5.014,5.014,5.0193,5.0186,5.0274,5.0184,5.0166,5.0175,5.0171,5.023,5.0237,5.0258,5.0363,5.0366,5.0273,5.0276,5.0279,5.028,0,0,0,0,0,0,0,5.0025,5.0039,5.0183,5.0142,5.0142,5.0126,5.0134,5.0202,5.0216,5.0167,5.0164,5.0174,5.0229,5.0253,5.0259,5.0367,5.0272,5.0278,5.0281,5.0284,5.0559,5.0562,0,0,0,0,0,0,5.0021,5.0034,5.0181,5.0185,5.0076,5.0132,5.0141,5.0179,5.0215,5.0217,5.0177,5.0171,5.0244,5.0253,5.0262,5.0386,5.0279,5.0284,5.0288,5.0555,5.056,5.0564,0,0,0,0,0,0,5.0017,5.0035,5.0177,5.0109,5.0126,5.014,5.0182,5.0183,5.0206,5.0222,5.0224,5.0199,5.0242,5.0253,5.0336,5.0388,5.0287,5.0292,5.0551,5.0557,5.0562,5.0637,0,0,0,0,0,0,5.0012,5.0034,5.0077,5.0111,5.013,5.0253,5.0186,5.0187,5.0218,5.0211,5.0244,5.0246,5.024,5.0327,5.0342,5.0394,5.0297,5.0546,5.0553,5.056,5.063,5.0644,5.0657,0,0,0,0,0,5.0005,5.0093,5.0079,5.0097,5.0184,5.0256,5.0267,5.0261,5.0222,5.0263,5.0274,5.0245,5.038,5.0336,5.0352,5.0407,5.0543,5.0551,5.0559,5.0624,5.0642,5.0657,0,0,0,0,0,0,5.0062,5.0097,5.0082,5.0185,5.0218,5.0248,5.03,5.0281,5.0323,5.0315,5.0303,5.0311,5.0397,5.041,5.036,5.051,5.0455,5.0467,5.0498,5.0515,5.0529,5.0523,5.0302,0,0,0,0,0,5.0087,5.0146,5.0172,5.026,5.0278,5.0287,5.0318,5.0311,5.0343,5.0356,5.0372,5.0403,5.0452,5.0485,5.0531,5.0632,5.0637,5.0678,5.0691,5.0702,5.0712,5.0764,5.0782,5.0591,5.0591,5.0591,0,0,5.0138,5.0165,5.0202,5.0272,5.0298,5.0355,5.0299,5.0362,5.0404,5.0365,5.0444,5.0457,5.049,5.0582,5.0623,5.0595,5.0766,5.0713,5.0722,5.0726,5.0775,5.0793,5.0809,5.0597,5.0596,5.0595,0,0,5.0261,5.0289,5.0364,5.0391,5.0431,5.0436,5.0454,5.0487,5.0494,5.0574,5.0546,5.0593,5.0679,5.0703,5.0727,5.0859,5.0832,5.0874,5.0944,5.0995,5.101,5.1023,5.1068,5.1085,5.0884,5.0884,5.0884,0,5.0319,5.0409,5.0405,5.0471,5.0501,5.0472,5.0546,5.0571,5.0622,5.0642,5.0612,5.0718,5.0738,5.0834,5.0867,5.0887,5.0905,5.0869,5.1009,5.1022,5.1034,5.1077,5.1094,5.0889,5.0888,5.0888,5.0887,0,5.0477,5.0539,5.0595,5.0648,5.0685,5.0755,5.0758,5.0795,5.0784,5.0791,5.0871,5.0894,5.0944,5.0967,5.0956,5.1061,5.1042,5.1011,5.0955,5.1057,5.1097,5.1113,5.0895,5.0894,5.0892,5.0891,0,0,5.0637,5.0689,5.0709,5.0732,5.0773,5.082,5.0887,5.0938,5.0969,5.1005,5.1059,5.1132,5.1103,5.113,5.1121,5.1167,5.1267,5.1129,5.1129,5.1152,5.1381,5.1403,5.1423,5.1251,5.1254,5.1256,5.1378,0,5.0761,5.0883,5.088,5.0991,5.1046,5.1018,5.1076,5.1106,5.1114,5.116,5.1167,5.1219,5.1178,5.1193,5.1237,5.1246,5.1312,5.1237,5.1297,5.13,5.1289,5.1444,5.1468,5.1582,5.1393,5.1396,5.1398,0,5.0923,5.0967,5.1084,5.1117,5.114,5.1192,5.1238,5.1284,5.1316,5.1318,5.1348,5.1333,5.1397,5.1341,5.1428,5.1377,5.1401,5.1409,5.1413,5.1417,5.1354,5.145,5.1618,5.1634,5.1423,5.1421,5.1419,0,5.1026,5.1115,5.1196,5.1217,5.1257,5.1294,5.1312,5.1341,5.1371,5.1411,5.143,5.1475,5.15,5.1534,5.1529,5.1489,5.1617,5.1561,5.1618,5.1619,5.1645,5.1643,5.1818,5.1664,5.1664,5.1664,5.1663,0,5.1164,5.1236,5.1243,5.1293,5.1371,5.1367,5.1444,5.1457,5.1483,5.1532,5.151,5.1556,5.1549,5.1594,5.159,5.1662,5.1673,5.1675,5.1673,5.1676,5.1676,5.169,5.1682,5.1668,5.1667,5.1666,5.1666,0,5.1292,5.13,5.1386,5.1418,5.1427,5.1484,5.1509,5.1554,5.156,5.1623,5.1637,5.1646,5.1698,5.1698,5.1756,5.1754,5.1841,5.1831,5.1831,5.1828,5.1885,5.1879,5.2074,5.2098,5.1931,5.1932,5.1934,0,5.1379,5.1434,5.1472,5.1505,5.1526,5.1579,5.1611,5.1607,5.164,5.168,5.172,5.1771,5.1811,5.1895,5.1904,5.1948,5.1938,5.2003,5.1944,5.1945,5.1936,5.1933,5.1937,5.2014,5.2016,5.2017,5.2018,0,5.1532,5.1533,5.1581,5.1631,5.167,5.1708,5.1743,5.177,5.177,5.1808,5.1862,5.1894,5.1954,5.2003,5.2046,5.206,5.2039,5.2037,5.2053,5.2056,5.2053,5.2053,5.1861,5.2032,5.2031,5.203,5.2029,5.2029,5.1641,5.1688,5.1722,5.1776,5.1802,5.1835,5.1879,5.1892,5.1938,5.1989,5.1983,5.2043,5.2071,5.2127,5.2145,5.219,5.2166,5.2189,5.2194,5.22,5.2205,5.2048,5.2197,5.2197,5.2197,5.2196,5.2196,0,5.179,5.1811,5.1861,5.1912,5.1953,5.1933,5.197,5.2005,5.2059,5.2089,5.2129,5.219,5.2238,5.2252,5.2297,5.233,5.2321,5.2341,5.2338,5.2341,5.2224,5.2206,5.2348,5.2348,5.2348,5.2348,5.2348,5.2348,5.1873,5.1952,5.1957,5.2046,5.2065,5.2126,5.2149,5.2178,5.2202,5.2272,5.2313,5.2322,5.2345,5.2391,5.2433,5.2435,5.2452,5.2477,5.2475,5.2365,5.235,5.2335,5.2318,5.2481,5.2481,5.2588,5.2589,5.259]}]]